Regional Weather Roundup
Issued by NWS

Home | Current Version | Previous Version | Text Only | Print | Product List | Glossary On
Versions: 1 2 3 4 5 6 7 8 9 10 11 12 13 14 15 16 17 18 19 20 21 22 23 24 25 26 27
000
ASUS45 KREV 241210
RWRNV
NEVADA REGIONAL WEATHER ROUNDUP
NATIONAL WEATHER SERVICE RENO NV
500 AM PDT SUN JUL 24 2016

NOTE: "FAIR" INDICATES FEW OR NO CLOUDS BELOW 12,000 FEET WITH NO
SIGNIFICANT WEATHER AND/OR OBSTRUCTIONS TO VISIBILITY.

NVZ001-003-004-241300-
WESTERN NEVADA

CITY           SKY/WX    TMP DP  RH WIND       PRES   REMARKS
RENO           CLEAR     63  34  33 CALM      30.10R
6HR MIN TEMP:  62; 6HR MAX TEMP:  77;

CARSON CITY    FAIR      54  28  37 CALM      30.13R
MINDEN         FAIR      45  32  61 CALM      30.13R
SLIDE MTN        N/A     57  28  33 E13         N/A
PYRAMID LAKE     N/A     70 N/A N/A W8          N/A
FALLON         CLEAR     53  26  35 CALM      30.05R
6HR MIN TEMP:  53; 6HR MAX TEMP:  70;

LOVELOCK       CLEAR     53  18  25 CALM      30.05S
6HR MIN TEMP:  50; 6HR MAX TEMP:  74;

HAWTHORNE      CLEAR     63  23  22 CALM      30.06R
$$

NVZ002-CAZ072-073-241300-
NORTHERN AND CENTRAL SIERRA

CITY           SKY/WX    TMP DP  RH WIND       PRES   REMARKS
S. LAKE TAHOE  CLEAR     41  31  67 CALM      30.20F
6HR MIN TEMP:  40; 6HR MAX TEMP:  54;

TRUCKEE        CLEAR     37  30  75 CALM      30.21R
SQUAW VLY 8000 NOT AVBL
SUSANVILLE     CLEAR     54  32  43 W3        30.08S
MAMMOTH LAKES    N/A     50  20  30 NW3       30.27S
6HR MIN TEMP:  50; 6HR MAX TEMP:  67;

BRIDGEPORT     FAIR      40  21  46 CALM      30.25S
$$

NVZ030-031-036-241300-
NORTHERN NEVADA

CITY           SKY/WX    TMP DP  RH WIND       PRES   REMARKS
ELKO           CLEAR     50  28  42 CALM      30.18R
6HR MIN TEMP:  48; 6HR MAX TEMP:  72;

WINNEMUCCA     CLEAR     65  28  24 NE13G20   30.11R
6HR MIN TEMP:  65; 6HR MAX TEMP:  75;

WENDOVER       CLEAR     70  28  21 SE3       30.10R
$$

NVZ035-037-241300-
CENTRAL NEVADA

CITY           SKY/WX    TMP DP  RH WIND       PRES   REMARKS
ELY            PTCLDY    43  20  39 S9        30.23R
6HR MIN TEMP:  43; 6HR MAX TEMP:  69;

EUREKA           N/A     47  22  37 S9        30.21S
6HR MIN TEMP:  45; 6HR MAX TEMP:  59;

$$

NVZ013-014-241300-
SOUTH CENTRAL NEVADA

CITY           SKY/WX    TMP DP  RH WIND       PRES   REMARKS
TONOPAH        CLEAR     63   8  11 N13       30.11F
6HR MIN TEMP:  63; 6HR MAX TEMP:  76;

$$

NVZ017-020-022-241300-
SOUTHERN NEVADA

CITY           SKY/WX    TMP DP  RH WIND       PRES   REMARKS
LAS VEGAS      CLEAR     92  39  15 CALM      29.78R
6HR MIN TEMP:  91; 6HR MAX TEMP:  99;

N. LAS VEGAS   CLEAR     86  40  19 NW3       29.81R
6HR MIN TEMP:  85; 6HR MAX TEMP: 100;

NELLIS AFB     CLEAR     88  53  30 N8        29.79R
6HR MIN TEMP:  88; 6HR MAX TEMP: 100;

HENDERSON      CLEAR     90  43  19 SW8       29.85R
6HR MIN TEMP:  89; 6HR MAX TEMP:  96;

MERCURY        CLEAR     75  32  20 E5        29.91R
6HR MIN TEMP:  74; 6HR MAX TEMP:  95;

$$




USA.gov is the U.S. government's official web portal to all federal, state and local government web resources and services.